Superferry II — SWKV — position and weather

sailwx.info

Track history (hours):
 
Tides and Currents Weather Stations Pressure Air Temp Water Temp Dewpoint Dewpoint Depression Visibility Wind Speed Wind Dir Waves Ship Positions

Superferry II

Last reported at 2014-Oct-25 11:33 UTC. Time now 2014-Oct-25 12:05 UTC.
Position N 37°32' E 025°09'.

Length 122 m; draft 4.7 m.

Type: Passenger vessel. MMSI: 237001000.

Date/timePositionNaut miles runAvg speedWind from/ knotsBaromVisibWave heightAir tempDewpointWater temp
2014-Oct-25 11:33N 37°32' E 025°09'9 9.1
2014-Oct-25 10:34N 37°28' E 025°19'2 1.7
2014-Oct-25 09:33N 37°28' E 025°17'1212.0
2014-Oct-25 08:32N 37°34' E 025°04'4915.7
2014-Oct-25 05:26N 37°59' E 024°11'16 1.7
2014-Oct-24 19:31N 37°54' E 024°30'21 7.1
2014-Oct-24 16:33N 38°00' E 024°05'3 3.2
2014-Oct-24 15:33N 38°02' E 024°01'1917.7
2014-Oct-24 14:28N 37°56' E 024°25'2613.6
2014-Oct-24 12:31N 37°42' E 024°54'1616.7
2014-Oct-24 11:33N 37°32' E 025°09'9 9.1
2014-Oct-24 10:33N 37°28' E 025°19'0 0.0
2014-Oct-24 09:33N 37°28' E 025°19'1413.4
2014-Oct-24 08:33N 37°34' E 025°04'4615.4
2014-Oct-24 05:33N 37°58' E 024°15'9 0.6
2014-Oct-23 14:33N 37°55' E 024°25'2713.7
2014-Oct-23 12:33N 37°42' E 024°55'1515.2
2014-Oct-23 11:33N 37°32' E 025°10'9 8.9
2014-Oct-23 10:33N 37°28' E 025°19'3 2.9
2014-Oct-23 09:33N 37°29' E 025°16'1312.6
2014-Oct-23 08:33N 37°36' E 025°02'4414.7
2014-Oct-23 05:33N 37°58' E 024°14'9 0.6
2014-Oct-22 15:32N 38°01' E 024°04'2118.1
2014-Oct-22 14:21N 37°55' E 024°30'2513.9
2014-Oct-22 12:33N 37°41' E 024°56'1413.9
2014-Oct-22 11:33N 37°32' E 025°10'9 8.7
2014-Oct-22 10:32N 37°28' E 025°19'0 0.0
2014-Oct-22 09:31N 37°28' E 025°19'1212.2
2014-Oct-22 08:33N 37°33' E 025°06'4915.8
2014-Oct-22 05:29N 37°58' E 024°13'10 0.7
2014-Oct-21 15:32N 38°01' E 024°01'2018.0
2014-Oct-21 14:26N 37°56' E 024°25'2813.8
2014-Oct-21 12:26N 37°42' E 024°55'1517.0
2014-Oct-21 11:33N 37°32' E 025°09'9 9.2
2014-Oct-21 10:33N 37°28' E 025°19'0 0.0
2014-Oct-21 09:33N 37°28' E 025°19'1413.5
2014-Oct-21 08:33N 37°34' E 025°04'5216.0
2014-Oct-21 05:20N 37°60' E 024°08'4 0.3
2014-Oct-20 15:23N 38°01' E 024°03'4815.5
2014-Oct-20 12:20N 37°40' E 024°57'1316.3
2014-Oct-20 11:33N 37°32' E 025°09'9 9.0
2014-Oct-20 10:33N 37°28' E 025°19'0 0.0
2014-Oct-20 09:33N 37°28' E 025°19'1111.2
2014-Oct-20 08:34N 37°33' E 025°07'5316.1
2014-Oct-20 05:15N 37°60' E 024°09'6 0.7
2014-Oct-19 20:33N 38°01' E 024°01'4 1.1
2014-Oct-19 16:33N 38°00' E 024°06'4 3.5
2014-Oct-19 15:29N 38°01' E 024°02'5115.3
2014-Oct-19 12:11N 37°38' E 024°59'1016.3
2014-Oct-19 11:33N 37°32' E 025°09'9 9.1
2014-Oct-19 10:33N 37°28' E 025°19'0 0.0
2014-Oct-19 09:33N 37°28' E 025°19'1313.2
2014-Oct-19 08:33N 37°34' E 025°05'5116.0
2014-Oct-19 05:20N 37°60' E 024°08'5 0.3
2014-Oct-18 15:28N 38°01' E 024°03'4815.2
2014-Oct-18 12:19N 37°40' E 024°57'1216.5
2014-Oct-18 11:33N 37°32' E 025°09'9 9.0
2014-Oct-18 10:33N 37°28' E 025°19'0 0.0
2014-Oct-18 09:34N 37°28' E 025°19'1111.0
2014-Oct-18 08:33N 37°33' E 025°07'5216.2
2014-Oct-18 05:21N 37°59' E 024°11'7 0.8
2014-Oct-17 20:33N 38°01' E 024°02'2618.1
2014-Oct-17 19:07N 37°54' E 024°34'15 7.2
2014-Oct-17 17:04N 37°58' E 024°16'1018.6
2014-Oct-17 16:33N 38°01' E 024°04'2 1.6
2014-Oct-17 15:30N 38°01' E 024°02'1718.1
2014-Oct-17 14:33N 37°56' E 024°23'3214.3
2014-Oct-17 12:17N 37°39' E 024°58'1115.4
2014-Oct-17 11:32N 37°32' E 025°09'9 8.8
2014-Oct-17 10:30N 37°28' E 025°19'0 0.0
2014-Oct-17 09:33N 37°28' E 025°19'1110.7
2014-Oct-17 08:33N 37°33' E 025°07'5016.3
2014-Oct-17 05:30N 37°58' E 024°14'9 0.6
2014-Oct-16 15:29N 38°01' E 024°03'1718.3
2014-Oct-16 14:33N 37°56' E 024°24'2913.5
2014-Oct-16 12:25N 37°42' E 024°55'1516.9
2014-Oct-16 11:33N 37°32' E 025°09'9 9.1
2014-Oct-16 10:33N 37°28' E 025°19'0 0.0
2014-Oct-16 09:33N 37°28' E 025°19'1312.6
2014-Oct-16 08:33N 37°34' E 025°05'4916.1
2014-Oct-16 05:32N 37°58' E 024°12'8 0.6
2014-Oct-15 15:25N 38°01' E 024°03'1618.4
2014-Oct-15 14:32N 37°56' E 024°22'1717.8
2014-Oct-15 13:33N 37°52' E 024°44'1211.5
2014-Oct-15 12:33N 37°43' E 024°53'1717.3
2014-Oct-15 11:33N 37°32' E 025°09'  
Track history (hours):
 
Tides and Currents Weather Stations Pressure Air Temp Water Temp Dewpoint Dewpoint Depression Visibility Wind Speed Wind Dir Waves Ship Positions

Superferry II

Last reported at 2014-Oct-25 11:33 UTC. Time now 2014-Oct-25 12:05 UTC.
Position N 37°32' E 025°09'.

Length 122 m; draft 4.7 m.

Type: Passenger vessel. MMSI: 237001000.

Date/timePositionNaut miles runAvg speedWind from/ knotsBaromVisibWave heightAir tempDewpointWater temp
2014-Oct-25 11:33N 37°32' E 025°09'9 9.1
2014-Oct-25 10:34N 37°28' E 025°19'2 1.7
2014-Oct-25 09:33N 37°28' E 025°17'1212.0
2014-Oct-25 08:32N 37°34' E 025°04'4915.7
2014-Oct-25 05:26N 37°59' E 024°11'16 1.7
2014-Oct-24 19:31N 37°54' E 024°30'21 7.1
2014-Oct-24 16:33N 38°00' E 024°05'3 3.2
2014-Oct-24 15:33N 38°02' E 024°01'1917.7
2014-Oct-24 14:28N 37°56' E 024°25'2613.6
2014-Oct-24 12:31N 37°42' E 024°54'1616.7
2014-Oct-24 11:33N 37°32' E 025°09'9 9.1
2014-Oct-24 10:33N 37°28' E 025°19'0 0.0
2014-Oct-24 09:33N 37°28' E 025°19'1413.4
2014-Oct-24 08:33N 37°34' E 025°04'4615.4
2014-Oct-24 05:33N 37°58' E 024°15'9 0.6
2014-Oct-23 14:33N 37°55' E 024°25'2713.7
2014-Oct-23 12:33N 37°42' E 024°55'1515.2
2014-Oct-23 11:33N 37°32' E 025°10'9 8.9
2014-Oct-23 10:33N 37°28' E 025°19'3 2.9
2014-Oct-23 09:33N 37°29' E 025°16'1312.6
2014-Oct-23 08:33N 37°36' E 025°02'4414.7
2014-Oct-23 05:33N 37°58' E 024°14'9 0.6
2014-Oct-22 15:32N 38°01' E 024°04'2118.1
2014-Oct-22 14:21N 37°55' E 024°30'2513.9
2014-Oct-22 12:33N 37°41' E 024°56'1413.9
2014-Oct-22 11:33N 37°32' E 025°10'9 8.7
2014-Oct-22 10:32N 37°28' E 025°19'0 0.0
2014-Oct-22 09:31N 37°28' E 025°19'1212.2
2014-Oct-22 08:33N 37°33' E 025°06'4915.8
2014-Oct-22 05:29N 37°58' E 024°13'10 0.7
2014-Oct-21 15:32N 38°01' E 024°01'2018.0
2014-Oct-21 14:26N 37°56' E 024°25'2813.8
2014-Oct-21 12:26N 37°42' E 024°55'1517.0
2014-Oct-21 11:33N 37°32' E 025°09'9 9.2
2014-Oct-21 10:33N 37°28' E 025°19'0 0.0
2014-Oct-21 09:33N 37°28' E 025°19'1413.5
2014-Oct-21 08:33N 37°34' E 025°04'5216.0
2014-Oct-21 05:20N 37°60' E 024°08'4 0.3
2014-Oct-20 15:23N 38°01' E 024°03'4815.5
2014-Oct-20 12:20N 37°40' E 024°57'1316.3
2014-Oct-20 11:33N 37°32' E 025°09'9 9.0
2014-Oct-20 10:33N 37°28' E 025°19'0 0.0
2014-Oct-20 09:33N 37°28' E 025°19'1111.2
2014-Oct-20 08:34N 37°33' E 025°07'5316.1
2014-Oct-20 05:15N 37°60' E 024°09'6 0.7
2014-Oct-19 20:33N 38°01' E 024°01'4 1.1
2014-Oct-19 16:33N 38°00' E 024°06'4 3.5
2014-Oct-19 15:29N 38°01' E 024°02'5115.3
2014-Oct-19 12:11N 37°38' E 024°59'1016.3
2014-Oct-19 11:33N 37°32' E 025°09'9 9.1
2014-Oct-19 10:33N 37°28' E 025°19'0 0.0
2014-Oct-19 09:33N 37°28' E 025°19'1313.2
2014-Oct-19 08:33N 37°34' E 025°05'5116.0
2014-Oct-19 05:20N 37°60' E 024°08'5 0.3
2014-Oct-18 15:28N 38°01' E 024°03'4815.2
2014-Oct-18 12:19N 37°40' E 024°57'1216.5
2014-Oct-18 11:33N 37°32' E 025°09'9 9.0
2014-Oct-18 10:33N 37°28' E 025°19'0 0.0
2014-Oct-18 09:34N 37°28' E 025°19'1111.0
2014-Oct-18 08:33N 37°33' E 025°07'5216.2
2014-Oct-18 05:21N 37°59' E 024°11'7 0.8
2014-Oct-17 20:33N 38°01' E 024°02'2618.1
2014-Oct-17 19:07N 37°54' E 024°34'15 7.2
2014-Oct-17 17:04N 37°58' E 024°16'1018.6
2014-Oct-17 16:33N 38°01' E 024°04'2 1.6
2014-Oct-17 15:30N 38°01' E 024°02'1718.1
2014-Oct-17 14:33N 37°56' E 024°23'3214.3
2014-Oct-17 12:17N 37°39' E 024°58'1115.4
2014-Oct-17 11:32N 37°32' E 025°09'9 8.8
2014-Oct-17 10:30N 37°28' E 025°19'0 0.0
2014-Oct-17 09:33N 37°28' E 025°19'1110.7
2014-Oct-17 08:33N 37°33' E 025°07'5016.3
2014-Oct-17 05:30N 37°58' E 024°14'9 0.6
2014-Oct-16 15:29N 38°01' E 024°03'1718.3
2014-Oct-16 14:33N 37°56' E 024°24'2913.5
2014-Oct-16 12:25N 37°42' E 024°55'1516.9
2014-Oct-16 11:33N 37°32' E 025°09'9 9.1
2014-Oct-16 10:33N 37°28' E 025°19'0 0.0
2014-Oct-16 09:33N 37°28' E 025°19'1312.6
2014-Oct-16 08:33N 37°34' E 025°05'4916.1
2014-Oct-16 05:32N 37°58' E 024°12'8 0.6
2014-Oct-15 15:25N 38°01' E 024°03'1618.4
2014-Oct-15 14:32N 37°56' E 024°22'1717.8
2014-Oct-15 13:33N 37°52' E 024°44'1211.5
2014-Oct-15 12:33N 37°43' E 024°53'1717.3
2014-Oct-15 11:33N 37°32' E 025°09'  

Dump ship's entire track history